Time,TemperatureF,DewpointF,PressureIn,WindDirection,WindDirectionDegrees,WindSpeedMPH,WindSpeedGustMPH,Humidity,HourlyPrecipIn,Conditions,Clouds,dailyrainin,SoftwareType,DateUTC
2013-05-31 00:02:00,75.0,68.0,-100.00,SSE,160,2.0,3.0,79,0.00,,,-99.99,,2013-05-31 04:02:00,
2013-05-31 00:12:00,74.0,68.0,-100.00,South,190,1.0,3.0,80,0.00,,,-99.99,,2013-05-31 04:12:00,
2013-05-31 00:22:00,74.0,68.0,-100.00,SE,145,2.0,4.0,82,0.00,,,-99.99,,2013-05-31 04:22:00,
2013-05-31 00:33:00,74.0,68.0,-100.00,SSE,150,2.0,4.0,83,0.00,,,-99.99,,2013-05-31 04:33:00,
2013-05-31 00:42:00,74.0,68.0,-100.00,SSE,155,4.0,6.0,83,0.00,,,-99.99,,2013-05-31 04:42:00,
2013-05-31 00:53:00,74.0,68.0,-100.00,SSE,155,3.0,4.0,83,0.00,,,-99.99,,2013-05-31 04:53:00,
2013-05-31 01:02:00,74.0,68.0,-100.00,South,180,2.0,5.0,83,0.00,,,-99.99,,2013-05-31 05:02:00,
2013-05-31 01:12:00,74.0,69.0,-100.00,South,170,2.0,7.0,83,0.00,,,-99.99,,2013-05-31 05:12:00,
2013-05-31 01:22:00,74.0,69.0,-100.00,SSE,165,3.0,7.0,82,0.00,,,-99.99,,2013-05-31 05:22:00,
2013-05-31 01:32:00,75.0,69.0,-100.00,South,180,3.0,7.0,81,0.00,,,-99.99,,2013-05-31 05:32:00,
2013-05-31 01:42:00,75.0,68.0,-100.00,SSE,155,4.0,6.0,80,0.00,,,-99.99,,2013-05-31 05:42:00,
2013-05-31 01:52:00,74.0,68.0,-100.00,SSE,150,4.0,7.0,80,0.00,,,-99.99,,2013-05-31 05:52:00,
2013-05-31 02:02:00,74.0,68.0,-100.00,SSE,160,4.0,7.0,80,0.00,,,-99.99,,2013-05-31 06:02:00,
2013-05-31 02:12:00,74.0,68.0,-100.00,SSE,160,4.0,7.0,81,0.00,,,-99.99,,2013-05-31 06:12:00,
2013-05-31 02:22:00,74.0,68.0,-100.00,SSE,160,4.0,7.0,81,0.00,,,-99.99,,2013-05-31 06:22:00,
2013-05-31 02:32:00,73.0,68.0,-100.00,SSE,150,4.0,6.0,82,0.00,,,-99.99,,2013-05-31 06:32:00,
2013-05-31 02:41:00,73.0,67.0,-100.00,SE,140,3.0,6.0,83,0.00,,,-99.99,,2013-05-31 06:41:00,
2013-05-31 02:51:00,72.0,67.0,-100.00,SE,145,3.0,6.0,84,0.00,,,-99.99,,2013-05-31 06:51:00,
2013-05-31 03:02:00,71.0,67.0,-100.00,East,100,1.0,4.0,85,0.00,,,-99.99,,2013-05-31 07:02:00,
2013-05-31 03:11:00,70.0,66.0,-100.00,East,85,1.0,2.0,87,0.00,,,-99.99,,2013-05-31 07:11:00,
2013-05-31 03:21:00,69.0,66.0,-100.00,SSE,165,2.0,3.0,89,0.00,,,-99.99,,2013-05-31 07:21:00,
2013-05-31 03:32:00,70.0,67.0,-100.00,SSE,160,4.0,4.0,90,0.00,,,-99.99,,2013-05-31 07:32:00,
2013-05-31 03:41:00,70.0,67.0,-100.00,SSE,155,3.0,6.0,90,0.00,,,-99.99,,2013-05-31 07:41:00,
2013-05-31 03:52:00,70.0,67.0,-100.00,SSE,165,4.0,7.0,90,0.00,,,-99.99,,2013-05-31 07:52:00,
2013-05-31 04:02:00,71.0,67.0,-100.00,SSE,155,6.0,9.0,89,0.00,,,-99.99,,2013-05-31 08:02:00,
2013-05-31 04:11:00,71.0,67.0,-100.00,SSE,160,6.0,9.0,88,0.00,,,-99.99,,2013-05-31 08:11:00,
2013-05-31 04:22:00,71.0,67.0,-100.00,SSE,155,4.0,9.0,88,0.00,,,-99.99,,2013-05-31 08:22:00,
2013-05-31 04:32:00,71.0,67.0,-100.00,SSE,150,4.0,7.0,88,0.00,,,-99.99,,2013-05-31 08:32:00,
2013-05-31 04:42:00,71.0,67.0,-100.00,SSE,150,4.0,7.0,88,0.00,,,-99.99,,2013-05-31 08:42:00,
2013-05-31 04:51:00,70.0,67.0,-100.00,SSE,160,4.0,6.0,90,0.00,,,-99.99,,2013-05-31 08:51:00,
2013-05-31 05:01:00,70.0,67.0,-100.00,SSE,155,5.0,7.0,90,0.00,,,-99.99,,2013-05-31 09:01:00,
2013-05-31 05:11:00,70.0,67.0,-100.00,SSE,150,3.0,6.0,90,0.00,,,-99.99,,2013-05-31 09:11:00,
2013-05-31 05:21:00,70.0,67.0,-100.00,SSE,160,4.0,7.0,90,0.00,,,-99.99,,2013-05-31 09:21:00,
2013-05-31 05:32:00,70.0,67.0,-100.00,SSE,150,5.0,7.0,90,0.00,,,-99.99,,2013-05-31 09:32:00,
2013-05-31 05:43:00,70.0,67.0,-100.00,SSE,150,5.0,8.0,91,0.00,,,-99.99,,2013-05-31 09:43:00,
2013-05-31 05:53:00,69.0,67.0,-100.00,SSE,155,4.0,7.0,91,0.00,,,-99.99,,2013-05-31 09:53:00,
2013-05-31 06:02:00,69.0,67.0,-100.00,South,170,2.0,7.0,91,0.00,,,-99.99,,2013-05-31 10:02:00,
2013-05-31 06:12:00,69.0,67.0,-100.00,SSE,150,4.0,6.0,92,0.00,,,-99.99,,2013-05-31 10:12:00,
2013-05-31 06:22:00,69.0,67.0,-100.00,SSE,160,4.0,7.0,91,0.00,,,-99.99,,2013-05-31 10:22:00,
2013-05-31 06:33:00,69.0,67.0,-100.00,SE,145,4.0,7.0,91,0.00,,,-99.99,,2013-05-31 10:33:00,
2013-05-31 06:42:00,70.0,67.0,-100.00,SE,140,4.0,8.0,90,0.00,,,-99.99,,2013-05-31 10:42:00,
2013-05-31 06:52:00,70.0,67.0,-100.00,SSE,160,4.0,6.0,90,0.00,,,-99.99,,2013-05-31 10:52:00,
2013-05-31 07:02:00,69.0,67.0,-100.00,SE,145,4.0,7.0,91,0.00,,,-99.99,,2013-05-31 11:02:00,
2013-05-31 07:12:00,70.0,67.0,-100.00,SE,145,4.0,7.0,91,0.00,,,-99.99,,2013-05-31 11:12:00,
2013-05-31 07:22:00,70.0,67.0,-100.00,East,100,2.0,5.0,91,0.00,,,-99.99,,2013-05-31 11:22:00,
2013-05-31 07:32:00,71.0,68.0,-100.00,SE,125,3.0,5.0,90,0.00,,,-99.99,,2013-05-31 11:32:00,
2013-05-31 07:42:00,72.0,68.0,-100.00,SE,145,4.0,7.0,88,0.00,,,-99.99,,2013-05-31 11:42:00,
2013-05-31 07:52:00,73.0,68.0,-100.00,SE,145,5.0,7.0,85,0.00,,,-99.99,,2013-05-31 11:52:00,
2013-05-31 08:01:00,74.0,68.0,-100.00,SSE,150,5.0,9.0,82,0.00,,,-99.99,,2013-05-31 12:01:00,
2013-05-31 08:11:00,76.0,68.0,-100.00,South,175,6.0,11.0,78,0.00,,,-99.99,,2013-05-31 12:11:00,
2013-05-31 08:22:00,76.0,68.0,-100.00,SSE,155,4.0,9.0,76,0.00,,,-99.99,,2013-05-31 12:22:00,
2013-05-31 08:32:00,77.0,68.0,-100.00,South,170,6.0,10.0,75,0.00,,,-99.99,,2013-05-31 12:32:00,
2013-05-31 08:41:00,77.0,69.0,-100.00,South,170,6.0,14.0,74,0.00,,,-99.99,,2013-05-31 12:41:00,
2013-05-31 08:52:00,78.0,69.0,-100.00,SSW,210,6.0,11.0,73,0.00,,,-99.99,,2013-05-31 12:52:00,
2013-05-31 09:01:00,78.0,69.0,-100.00,SSE,150,4.0,11.0,72,0.00,,,-99.99,,2013-05-31 13:01:00,
2013-05-31 09:11:00,79.0,69.0,-100.00,South,180,6.0,12.0,71,0.00,,,-99.99,,2013-05-31 13:11:00,
2013-05-31 09:21:00,79.0,69.0,-100.00,South,170,7.0,14.0,71,0.00,,,-99.99,,2013-05-31 13:21:00,
2013-05-31 09:32:00,79.0,69.0,-100.00,South,175,7.0,12.0,71,0.00,,,-99.99,,2013-05-31 13:32:00,
2013-05-31 09:42:00,80.0,70.0,-100.00,SSE,165,7.0,11.0,70,0.00,,,-99.99,,2013-05-31 13:42:00,
2013-05-31 09:52:00,81.0,70.0,-100.00,SSE,150,4.0,14.0,69,0.00,,,-99.99,,2013-05-31 13:52:00,
2013-05-31 10:02:00,81.0,70.0,-100.00,SSE,150,4.0,14.0,69,0.00,,,-99.99,,2013-05-31 14:02:00,
2013-05-31 10:11:00,82.0,70.0,-100.00,SSE,150,6.0,13.0,66,0.00,,,-99.99,,2013-05-31 14:11:00,
2013-05-31 10:21:00,82.0,70.0,-100.00,South,170,5.0,12.0,66,0.00,,,-99.99,,2013-05-31 14:21:00,
2013-05-31 10:32:00,82.0,69.0,-100.00,South,170,6.0,17.0,66,0.00,,,-99.99,,2013-05-31 14:32:00,
2013-05-31 10:42:00,83.0,70.0,-100.00,SSW,205,4.0,11.0,64,0.00,,,-99.99,,2013-05-31 14:42:00,
2013-05-31 10:52:00,83.0,69.0,-100.00,South,190,6.0,19.0,63,0.00,,,-99.99,,2013-05-31 14:52:00,
2013-05-31 11:01:00,84.0,69.0,-100.00,SSE,165,4.0,10.0,61,0.00,,,-99.99,,2013-05-31 15:01:00,
2013-05-31 11:11:00,84.0,69.0,-100.00,SSW,210,7.0,12.0,61,0.00,,,-99.99,,2013-05-31 15:11:00,
2013-05-31 11:21:00,84.0,69.0,-100.00,SSE,165,7.0,13.0,60,0.00,,,-99.99,,2013-05-31 15:21:00,
2013-05-31 11:33:00,85.0,69.0,-100.00,SE,145,7.0,14.0,59,0.00,,,-99.99,,2013-05-31 15:33:00,
2013-05-31 11:43:00,85.0,69.0,-100.00,South,170,9.0,20.0,59,0.00,,,-99.99,,2013-05-31 15:43:00,
2013-05-31 11:53:00,85.0,69.0,-100.00,SSE,155,6.0,12.0,58,0.00,,,-99.99,,2013-05-31 15:53:00,
2013-05-31 12:03:00,85.0,69.0,-100.00,SSE,165,10.0,18.0,59,0.00,,,-99.99,,2013-05-31 16:03:00,
2013-05-31 12:12:00,85.0,69.0,-100.00,SE,145,12.0,17.0,58,0.00,,,-99.99,,2013-05-31 16:12:00,
2013-05-31 12:22:00,86.0,70.0,-100.00,South,175,5.0,17.0,58,0.00,,,-99.99,,2013-05-31 16:22:00,
2013-05-31 12:33:00,86.0,69.0,-100.00,SSE,160,7.0,16.0,57,0.00,,,-99.99,,2013-05-31 16:33:00,
2013-05-31 12:42:00,86.0,69.0,-100.00,SSE,150,6.0,17.0,57,0.00,,,-99.99,,2013-05-31 16:42:00,
2013-05-31 12:52:00,85.0,69.0,-100.00,South,180,8.0,14.0,58,0.00,,,-99.99,,2013-05-31 16:52:00,
2013-05-31 13:02:00,85.0,69.0,-100.00,SSE,165,13.0,19.0,59,0.00,,,-99.99,,2013-05-31 17:02:00,
2013-05-31 13:12:00,86.0,70.0,-100.00,SSE,150,6.0,19.0,58,0.00,,,-99.99,,2013-05-31 17:12:00,
2013-05-31 13:22:00,86.0,70.0,-100.00,South,180,6.0,18.0,58,0.00,,,-99.99,,2013-05-31 17:22:00,
2013-05-31 13:32:00,86.0,69.0,-100.00,South,190,8.0,18.0,58,0.00,,,-99.99,,2013-05-31 17:32:00,
2013-05-31 13:42:00,86.0,69.0,-100.00,South,190,8.0,18.0,58,0.00,,,-99.99,,2013-05-31 17:42:00,
2013-05-31 13:52:00,85.0,69.0,-100.00,SSE,160,9.0,19.0,59,0.00,,,-99.99,,2013-05-31 17:52:00,
2013-05-31 14:02:00,85.0,69.0,-100.00,SSE,155,12.0,20.0,58,0.00,,,-99.99,,2013-05-31 18:02:00,
2013-05-31 14:12:00,86.0,69.0,-100.00,SSE,155,9.0,21.0,57,0.00,,,-99.99,,2013-05-31 18:12:00,
2013-05-31 14:22:00,85.0,69.0,-100.00,SSE,150,11.0,18.0,57,0.00,,,-99.99,,2013-05-31 18:22:00,
2013-05-31 14:32:00,86.0,69.0,-100.00,South,175,7.0,15.0,57,0.00,,,-99.99,,2013-05-31 18:32:00,
2013-05-31 14:42:00,86.0,69.0,-100.00,SSE,150,12.0,20.0,56,0.00,,,-99.99,,2013-05-31 18:42:00,
2013-05-31 14:52:00,85.0,69.0,-100.00,South,175,6.0,16.0,57,0.00,,,-99.99,,2013-05-31 18:52:00,
2013-05-31 15:02:00,87.0,70.0,-100.00,SSE,165,6.0,17.0,57,0.00,,,-99.99,,2013-05-31 19:02:00,
2013-05-31 15:11:00,85.0,69.0,-100.00,SSE,160,9.0,17.0,59,0.00,,,-99.99,,2013-05-31 19:11:00,
2013-05-31 15:22:00,84.0,70.0,-100.00,South,175,6.0,15.0,62,0.00,,,-99.99,,2013-05-31 19:22:00,
2013-05-31 15:32:00,86.0,70.0,-100.00,South,170,9.0,15.0,59,0.00,,,-99.99,,2013-05-31 19:32:00,
2013-05-31 15:42:00,87.0,70.0,-100.00,South,175,9.0,16.0,56,0.00,,,-99.99,,2013-05-31 19:42:00,
2013-05-31 15:52:00,87.0,70.0,-100.00,South,190,6.0,20.0,55,0.00,,,-99.99,,2013-05-31 19:52:00,
2013-05-31 16:02:00,87.0,70.0,-100.00,SSE,165,8.0,19.0,57,0.00,,,-99.99,,2013-05-31 20:02:00,
2013-05-31 16:11:00,85.0,70.0,-100.00,SSE,160,11.0,22.0,61,0.00,,,-99.99,,2013-05-31 20:11:00,
2013-05-31 16:22:00,84.0,70.0,-100.00,SSE,155,12.0,17.0,63,0.00,,,-99.99,,2013-05-31 20:22:00,
2013-05-31 16:32:00,83.0,71.0,-100.00,SSE,150,7.0,16.0,66,0.00,,,-99.99,,2013-05-31 20:32:00,
2013-05-31 16:42:00,83.0,71.0,-100.00,SSE,150,6.0,11.0,68,0.00,,,-99.99,,2013-05-31 20:42:00,
2013-05-31 16:52:00,83.0,72.0,-100.00,SE,145,4.0,11.0,68,0.00,,,-99.99,,2013-05-31 20:52:00,
2013-05-31 17:01:00,83.0,71.0,-100.00,SSE,155,7.0,12.0,66,0.00,,,-99.99,,2013-05-31 21:01:00,
2013-05-31 17:11:00,83.0,71.0,-100.00,SE,140,9.0,14.0,66,0.00,,,-99.99,,2013-05-31 21:11:00,
2013-05-31 17:22:00,83.0,71.0,-100.00,SSE,155,6.0,11.0,66,0.00,,,-99.99,,2013-05-31 21:22:00,
2013-05-31 17:33:00,84.0,72.0,-100.00,South,170,2.0,9.0,66,0.00,,,-99.99,,2013-05-31 21:33:00,
2013-05-31 17:42:00,83.0,72.0,-100.00,West,275,9.0,14.0,68,0.00,,,-99.99,,2013-05-31 21:42:00,
2013-05-31 17:53:00,78.0,71.0,-100.00,West,260,4.0,12.0,79,0.00,,,-99.99,,2013-05-31 21:53:00,
2013-05-31 18:02:00,76.0,72.0,-100.00,West,260,6.0,14.0,85,0.00,,,-99.99,,2013-05-31 22:02:00,
2013-05-31 18:12:00,75.0,72.0,-100.00,WSW,240,6.0,17.0,89,0.00,,,-99.99,,2013-05-31 22:12:00,
2013-05-31 18:22:00,75.0,73.0,-100.00,WNW,290,4.0,12.0,92,0.00,,,-99.99,,2013-05-31 22:22:00,
2013-05-31 18:33:00,74.0,72.0,-100.00,SW,235,4.0,14.0,94,0.00,,,-99.99,,2013-05-31 22:33:00,
2013-05-31 18:42:00,74.0,73.0,-100.00,SW,230,2.0,9.0,95,0.00,,,-99.99,,2013-05-31 22:42:00,
2013-05-31 18:52:00,74.0,73.0,-100.00,WSW,245,1.0,6.0,95,0.00,,,-99.99,,2013-05-31 22:52:00,
2013-05-31 19:02:00,74.0,73.0,-100.00,SE,140,1.0,6.0,95,0.00,,,-99.99,,2013-05-31 23:02:00,
2013-05-31 19:12:00,74.0,72.0,-100.00,SSW,205,1.0,5.0,95,0.00,,,-99.99,,2013-05-31 23:12:00,
2013-05-31 19:21:00,73.0,72.0,-100.00,SW,230,12.0,29.0,95,0.00,,,-99.99,,2013-05-31 23:21:00,
2013-05-31 19:32:00,69.0,68.0,-100.00,WSW,240,10.0,29.0,97,0.00,,,-99.99,,2013-05-31 23:32:00,
2013-05-31 19:42:00,68.0,67.0,-100.00,SW,215,10.0,22.0,97,0.00,,,-99.99,,2013-05-31 23:42:00,
2013-05-31 19:52:00,68.0,67.0,-100.00,SW,230,7.0,13.0,97,0.00,,,-99.99,,2013-05-31 23:52:00,
2013-05-31 20:01:00,67.0,67.0,-100.00,South,190,4.0,14.0,97,0.00,,,-99.99,,2013-06-01 00:01:00,
2013-05-31 20:12:00,67.0,66.0,-100.00,SW,230,4.0,12.0,97,0.00,,,-99.99,,2013-06-01 00:12:00,
2013-05-31 20:22:00,67.0,66.0,-100.00,WSW,255,4.0,9.0,97,0.00,,,-99.99,,2013-06-01 00:22:00,
2013-05-31 20:32:00,67.0,67.0,-100.00,SW,225,3.0,6.0,97,0.00,,,-99.99,,2013-06-01 00:32:00,
2013-05-31 20:42:00,67.0,67.0,-100.00,SSE,160,2.0,6.0,97,0.00,,,-99.99,,2013-06-01 00:42:00,
2013-05-31 20:52:00,67.0,67.0,-100.00,East,80,2.0,4.0,97,0.00,,,-99.99,,2013-06-01 00:52:00,
2013-05-31 21:01:00,67.0,66.0,-100.00,East,95,2.0,4.0,97,0.00,,,-99.99,,2013-06-01 01:01:00,
2013-05-31 21:11:00,67.0,66.0,-100.00,ESE,105,1.0,4.0,97,0.00,,,-99.99,,2013-06-01 01:11:00,
2013-05-31 21:22:00,67.0,66.0,-100.00,East,100,1.0,2.0,97,0.00,,,-99.99,,2013-06-01 01:22:00,
2013-05-31 21:32:00,67.0,66.0,-100.00,ENE,70,1.0,2.0,97,0.00,,,-99.99,,2013-06-01 01:32:00,
2013-05-31 21:42:00,67.0,66.0,-100.00,ENE,70,0.0,1.0,97,0.00,,,-99.99,,2013-06-01 01:42:00,
2013-05-31 21:52:00,67.0,66.0,-100.00,SSE,150,1.0,1.0,97,0.00,,,-99.99,,2013-06-01 01:52:00,
2013-05-31 22:02:00,68.0,67.0,-100.00,South,185,2.0,6.0,97,0.00,,,-99.99,,2013-06-01 02:02:00,
2013-05-31 22:11:00,67.0,67.0,-100.00,SSW,195,2.0,6.0,97,0.00,,,-99.99,,2013-06-01 02:11:00,
2013-05-31 22:21:00,67.0,66.0,-100.00,South,175,7.0,15.0,97,0.00,,,-99.99,,2013-06-01 02:21:00,
2013-05-31 22:32:00,67.0,66.0,-100.00,SE,145,4.0,10.0,97,0.00,,,-99.99,,2013-06-01 02:32:00,
2013-05-31 22:42:00,67.0,66.0,-100.00,SE,145,5.0,8.0,97,0.00,,,-99.99,,2013-06-01 02:42:00,
2013-05-31 22:52:00,67.0,66.0,-100.00,East,95,3.0,7.0,97,0.00,,,-99.99,,2013-06-01 02:52:00,
2013-05-31 23:02:00,67.0,66.0,-100.00,SSE,155,4.0,9.0,97,0.00,,,-99.99,,2013-06-01 03:02:00,
2013-05-31 23:11:00,67.0,67.0,-100.00,SSE,165,4.0,12.0,97,0.00,,,-99.99,,2013-06-01 03:11:00,
2013-05-31 23:21:00,67.0,67.0,-100.00,SSE,165,4.0,12.0,97,0.00,,,-99.99,,2013-06-01 03:21:00,
2013-05-31 23:33:00,67.0,67.0,-100.00,South,180,7.0,11.0,97,0.00,,,-99.99,,2013-06-01 03:33:00,
2013-05-31 23:43:00,67.0,67.0,-100.00,South,185,4.0,10.0,97,0.00,,,-99.99,,2013-06-01 03:43:00,
2013-05-31 23:53:00,68.0,67.0,-100.00,South,180,5.0,9.0,97,0.00,,,-99.99,,2013-06-01 03:53:00,